Location: Grossmotten
(48.5500°N, 15.3833°E)
Time: 17:40:05
(UTC+00:00)

Shenzhou-11 Module - Pass Details

Date: 15 November 2019
Orbit: 308 x 321 km, 42.8° (Epoch: 06 December)

Event Time Altitude Azimuth Distance (km) Brightness Sun altitude
Exits shadow 04:54:03 13° 234° (SW) 1,053 3.9 -11.9°
Maximum altitude 04:55:39 20° 190° (S) 796 3.7 -11.7°
Drops below altitude 10° 04:57:44 10° 139° (SE) 1,200 5.5 -11.3°
Sets 04:59:59 0° 122° (ESE) 2,031 7.4 -11.0°
